Temp
60 60 59 59 59 59 58 57 57 56 55 54 53 53 52 53 53 52 52 53 52 52 52 52 52 52 52 51 51 51 50 49 49 49 48 48 47 47 46 46 46 46
60 59 59 59 59 58 58 58 57 55 54 53 53 53 52 52 52 52 51 51 52 51 52 52 52 51 51 51 50 49 49 49 48 50 47 47 47 46 46 46 46 46
59 59 59 59 58 57 57 57 55 54 54 53 53 52 52 52 51 51 51 51 51 51 51 51 51 51 50 50 50 49 48 48 47 48 48 46 46 46 46 46 46 46
60 60 60 59 58 57 57 56 54 54 54 53 52 52 52 52 51 51 52 52 50 50 50 50 50 50 50 50 49 48 48 47 47 48 47 47 47 46 46 46 46 45
60 59 59 59 58 58 57 55 55 54 53 52 52 52 51 50 50 50 50 50 50 50 50 50 50 49 49 49 49 48 48 47 47 47 46 46 46 46 46 46 45 44
60 60 59 58 58 57 56 55 55 54 53 52 51 51 50 50 50 50 50 49 49 49 49 49 49 49 49 48 48 47 47 46 46 46 46 45 45 46 46 45 45 44
58 58 58 58 57 56 55 55 54 54 52 51 51 49 50 49 49 49 50 50 49 50 49 48 48 48 48 48 47 46 46 46 46 46 46 45 46 45 45 45 45 44
58 58 58 57 56 55 54 54 53 52 52 51 49 49 49 49 49 49 49 49 49 48 48 48 48 48 48 48 47 46 46 46 46 46 45 45 45 44 44 45 44 44
57 57 56 55 54 54 53 52 52 51 51 49 49 48 49 49 48 48 49 49 48 48 48 48 48 47 47 47 46 46 46 45 46 46 45 45 44 44 44 44 44 44
55 55 54 54 53 53 52 52 51 50 51 49 48 48 47 48 48 48 49 48 48 48 47 47 47 47 46 46 46 46 46 45 45 45 45 45 44 44 44 44 44 44
54 54 53 53 52 52 51 51 50 50 50 48 47 47 47 47 48 48 48 48 47 47 47 46 46 46 46 45 46 46 46 45 45 45 44 44 44 45 46 44 45 44
53 53 52 52 51 51 50 50 49 49 48 48 48 46 46 47 47 47 48 47 47 47 46 46 46 46 46 45 45 45 45 45 45 45 44 44 44 44 44 44 44 44
52 52 51 50 49 48 49 49 48 47 47 46 47 47 46 46 46 46 47 47 46 46 46 45 45 45 45 45 45 45 45 45 45 44 44 45 44 44 44 44 44 44
52 51 50 49 48 48 47 47 47 46 46 47 47 46 46 46 46 46 46 46 46 45 45 45 45 44 44 44 45 45 45 45 45 45 45 44 44 44 44 44 44 45
50 49 49 49 48 47 46 46 46 46 46 46 46 46 46 45 46 46 45 45 44 44 45 45 45 44 44 44 44 44 44 45 45 45 45 45 44 44 44 44 44 44
49 49 48 47 47 46 46 46 45 45 45 45 44 45 45 45 45 45 45 45 44 43 44 44 44 45 47 46 46 45 44 44 44 44 45 45 45 45 45 45 44 44
49 48 48 47 46 46 45 45 45 45 44 44 43 44 44 45 45 44 44 44 44 44 43 43 44 46 45 42 43 44 44 44 45 44 44 44 44 44 44 45 44 45
48 48 47 46 46 45 45 45 45 44 43 43 43 43 44 44 44 44 43 43 43 43 43 43 44 46 42 42 42 43 45 44 44 45 45 44 44 43 43 43 43 44
48 47 46 46 45 45 44 45 44 43 43 43 42 43 43 43 42 42 42 42 43 43 43 44 44 43 41 42 42 42 42 44 44 44 45 43 42 42 42 42 42 43
48 47 46 45 45 45 45 44 43 43 43 43 43 43 42 42 41 42 41 42 42 43 42 42 43 43 41 42 42 41 41 42 42 43 42 42 42 42 42 41 41 42
48 47 46 45 45 44 44 44 43 42 42 42 42 42 42 41 41 41 42 42 42 42 42 42 44 42 41 41 41 40 40 41 42 43 43 42 41 41 41 41 40 41
48 46 45 45 44 44 43 43 43 42 42 42 41 40 41 41 40 42 41 41 41 42 42 41 41 40 40 41 41 40 42 44 42 42 42 41 41 41 41 41 41 42
48 47 45 44 44 43 43 43 42 41 41 42 41 40 40 40 40 41 41 41 41 41 41 40 41 41 40 41 41 40 42 42 42 42 41 41 40 40 40 40 43 46
48 47 45 44 44 43 42 42 41 41 42 43 41 41 41 41 41 40 40 41 41 40 42 41 40 42 41 41 41 41 43 43 42 41 39 40 40 40 39 40 43 47
48 47 46 44 43 43 43 41 40 40 42 42 42 42 41 40 41 40 39 40 40 42 45 41 40 42 41 40 41 41 42 42 42 41 41 39 38 41 40 39 40 41
47 47 46 45 44 43 43 42 42 42 41 41 41 41 41 40 41 41 40 40 40 41 42 41 41 40 42 40 41 41 41 42 41 43 43 40 39 43 42 41 39 40
MSLP
1018.34 1018.58 1018.98 1019.26 1019.54 1019.98 1020.42 1020.78 1021.14 1021.42 1021.78 1021.94 1022.10 1022.38 1022.50 1022.78 1022.94 1023.02 1023.22 1023.38 1023.58 1023.86 1024.10 1024.30 1024.42 1024.54 1024.62 1024.66 1024.70 1024.78 1024.98 1025.22 1025.42 1025.54 1025.58 1025.62 1025.70 1025.66 1025.74 1025.90 1025.98 1025.98
1018.42 1018.66 1018.94 1019.18 1019.70 1020.26 1020.66 1020.86 1021.22 1021.50 1021.90 1022.10 1022.30 1022.54 1022.82 1022.98 1023.22 1023.30 1023.50 1023.74 1023.94 1024.22 1024.42 1024.54 1024.70 1024.82 1024.90 1024.98 1025.06 1025.18 1025.42 1025.54 1025.62 1025.70 1025.78 1025.78 1025.90 1025.94 1026.14 1026.26 1026.26 1026.26
1018.46 1018.66 1018.66 1019.10 1019.86 1020.42 1020.82 1021.14 1021.42 1021.74 1022.02 1022.30 1022.54 1022.82 1023.10 1023.22 1023.42 1023.58 1023.82 1023.98 1024.26 1024.50 1024.70 1024.86 1025.02 1025.14 1025.22 1025.30 1025.42 1025.54 1025.70 1025.74 1025.82 1025.90 1025.90 1026.10 1026.22 1026.34 1026.46 1026.46 1026.46 1026.46
1018.50 1018.50 1018.86 1019.54 1020.06 1020.54 1020.94 1021.30 1021.70 1021.98 1022.22 1022.50 1022.90 1023.10 1023.22 1023.42 1023.58 1023.82 1024.06 1024.22 1024.50 1024.78 1025.02 1025.18 1025.30 1025.42 1025.54 1025.62 1025.66 1025.78 1025.86 1025.90 1026.02 1026.06 1026.14 1026.38 1026.54 1026.58 1026.66 1026.62 1026.62 1026.58
1018.38 1018.86 1019.38 1019.82 1020.30 1020.70 1021.06 1021.46 1021.82 1022.14 1022.42 1022.78 1023.06 1023.22 1023.38 1023.58 1023.82 1024.10 1024.30 1024.58 1024.74 1025.06 1025.26 1025.46 1025.54 1025.66 1025.74 1025.82 1025.82 1025.94 1026.02 1026.18 1026.34 1026.38 1026.50 1026.70 1026.82 1026.74 1026.82 1026.74 1026.74 1026.74
1018.74 1019.14 1019.62 1020.06 1020.50 1020.86 1021.26 1021.62 1021.90 1022.26 1022.54 1022.86 1023.22 1023.38 1023.58 1023.78 1024.06 1024.30 1024.54 1024.82 1025.06 1025.26 1025.46 1025.62 1025.78 1025.90 1025.90 1026.02 1026.06 1026.18 1026.34 1026.46 1026.70 1026.70 1026.78 1026.90 1026.98 1026.94 1026.90 1026.86 1026.82 1026.86
1019.10 1019.54 1019.98 1020.30 1020.70 1021.02 1021.38 1021.74 1022.06 1022.34 1022.58 1022.98 1023.30 1023.62 1023.82 1024.06 1024.34 1024.58 1024.78 1024.98 1025.22 1025.42 1025.62 1025.78 1025.90 1026.06 1026.10 1026.18 1026.30 1026.50 1026.70 1026.78 1026.90 1026.90 1026.90 1026.98 1026.94 1026.98 1026.98 1026.98 1027.02 1027.10
1019.34 1019.74 1020.10 1020.46 1020.82 1021.22 1021.54 1021.90 1022.26 1022.50 1022.78 1023.14 1023.54 1023.98 1024.06 1024.34 1024.58 1024.82 1024.98 1025.18 1025.38 1025.62 1025.74 1025.90 1026.02 1026.18 1026.30 1026.38 1026.54 1026.74 1026.94 1027.06 1027.10 1027.06 1026.98 1027.06 1027.02 1027.06 1027.18 1027.22 1027.22 1027.14
1019.46 1019.90 1020.26 1020.66 1021.02 1021.46 1021.82 1022.14 1022.46 1022.74 1022.98 1023.34 1023.78 1024.18 1024.42 1024.50 1024.78 1024.98 1025.18 1025.34 1025.54 1025.74 1025.90 1026.06 1026.22 1026.38 1026.54 1026.62 1026.82 1026.94 1027.10 1027.22 1027.18 1027.10 1027.02 1027.06 1027.10 1027.22 1027.30 1027.30 1027.18 1027.18
1019.74 1020.10 1020.46 1020.86 1021.30 1021.70 1022.02 1022.34 1022.58 1022.90 1023.26 1023.58 1023.98 1024.30 1024.62 1024.90 1024.98 1025.18 1025.34 1025.50 1025.70 1025.94 1026.10 1026.26 1026.46 1026.66 1026.82 1026.94 1027.06 1027.14 1027.18 1027.22 1027.22 1027.18 1027.18 1027.18 1027.26 1027.30 1027.30 1027.22 1027.22 1027.14
1020.02 1020.34 1020.74 1021.14 1021.50 1021.82 1022.22 1022.58 1022.82 1023.18 1023.50 1023.82 1024.14 1024.50 1024.78 1024.98 1025.26 1025.30 1025.46 1025.62 1025.82 1026.02 1026.26 1026.50 1026.70 1026.86 1027.02 1027.22 1027.30 1027.30 1027.26 1027.22 1027.22 1027.26 1027.30 1027.34 1027.30 1027.26 1027.26 1027.22 1027.18 1027.26
1020.26 1020.66 1020.98 1021.34 1021.70 1022.14 1022.46 1022.74 1023.06 1023.38 1023.70 1024.02 1024.14 1024.54 1024.90 1025.10 1025.26 1025.46 1025.54 1025.78 1025.98 1026.22 1026.42 1026.74 1026.94 1027.10 1027.22 1027.34 1027.38 1027.38 1027.30 1027.30 1027.30 1027.34 1027.38 1027.34 1027.30 1027.30 1027.26 1027.26 1027.26 1027.26
1020.42 1020.82 1021.18 1021.58 1021.98 1022.38 1022.74 1023.02 1023.26 1023.58 1023.82 1024.14 1024.34 1024.54 1024.90 1025.18 1025.42 1025.58 1025.78 1025.90 1026.22 1026.42 1026.70 1026.94 1027.14 1027.30 1027.42 1027.46 1027.46 1027.38 1027.34 1027.30 1027.38 1027.38 1027.38 1027.34 1027.34 1027.34 1027.34 1027.34 1027.34 1027.38
1020.58 1020.98 1021.38 1021.78 1022.22 1022.62 1022.94 1023.22 1023.50 1023.74 1023.98 1024.22 1024.42 1024.70 1024.98 1025.26 1025.50 1025.66 1025.98 1026.14 1026.42 1026.66 1026.98 1027.14 1027.30 1027.50 1027.54 1027.54 1027.46 1027.42 1027.38 1027.42 1027.38 1027.34 1027.34 1027.38 1027.38 1027.42 1027.46 1027.46 1027.50 1027.46
1020.86 1021.34 1021.66 1022.02 1022.46 1022.82 1023.18 1023.46 1023.74 1023.94 1024.14 1024.34 1024.58 1024.90 1025.18 1025.42 1025.62 1025.78 1026.06 1026.38 1026.66 1026.90 1027.10 1027.26 1027.38 1027.50 1027.58 1027.54 1027.50 1027.50 1027.46 1027.42 1027.42 1027.38 1027.34 1027.34 1027.38 1027.42 1027.50 1027.50 1027.50 1027.50
1021.06 1021.46 1021.94 1022.34 1022.70 1023.06 1023.42 1023.70 1023.94 1024.14 1024.34 1024.58 1024.86 1025.10 1025.38 1025.62 1025.82 1025.98 1026.10 1026.38 1026.70 1027.02 1027.18 1027.30 1027.42 1027.46 1027.46 1027.46 1027.46 1027.46 1027.54 1027.54 1027.54 1027.46 1027.42 1027.38 1027.34 1027.38 1027.46 1027.58 1027.62 1027.58
1021.22 1021.70 1022.06 1022.50 1022.86 1023.22 1023.54 1023.82 1024.10 1024.34 1024.62 1024.90 1025.18 1025.38 1025.54 1025.74 1025.90 1026.10 1026.34 1026.54 1026.74 1026.90 1027.10 1027.26 1027.38 1027.38 1027.46 1027.50 1027.50 1027.50 1027.50 1027.50 1027.42 1027.50 1027.46 1027.42 1027.50 1027.58 1027.66 1027.66 1027.62 1027.66
1021.38 1021.82 1022.26 1022.70 1022.98 1023.34 1023.62 1023.94 1024.26 1024.54 1024.90 1025.14 1025.38 1025.58 1025.74 1025.90 1026.06 1026.22 1026.50 1026.70 1026.86 1026.98 1027.06 1027.18 1027.30 1027.38 1027.46 1027.50 1027.54 1027.54 1027.50 1027.50 1027.46 1027.42 1027.46 1027.54 1027.66 1027.74 1027.86 1027.86 1027.82 1027.74
1021.42 1021.90 1022.38 1022.78 1023.14 1023.50 1023.82 1024.14 1024.46 1024.82 1025.18 1025.42 1025.58 1025.74 1025.86 1025.98 1026.22 1026.42 1026.62 1026.82 1026.86 1026.94 1027.06 1027.22 1027.26 1027.42 1027.42 1027.50 1027.54 1027.54 1027.50 1027.46 1027.50 1027.50 1027.54 1027.66 1027.78 1027.90 1027.94 1027.94 1027.94 1027.90
1021.46 1021.90 1022.42 1022.86 1023.22 1023.50 1023.82 1024.18 1024.62 1025.02 1025.38 1025.62 1025.78 1025.90 1025.94 1026.14 1026.34 1026.42 1026.70 1026.78 1026.82 1026.86 1027.02 1027.22 1027.26 1027.42 1027.42 1027.46 1027.50 1027.54 1027.54 1027.50 1027.62 1027.66 1027.74 1027.82 1027.94 1027.98 1028.02 1028.02 1028.14 1028.14
1021.50 1021.94 1022.42 1022.90 1023.22 1023.54 1023.86 1024.22 1024.58 1025.06 1025.46 1025.78 1025.94 1025.94 1025.98 1026.02 1026.22 1026.42 1026.62 1026.78 1026.90 1026.94 1027.02 1027.18 1027.26 1027.38 1027.42 1027.42 1027.46 1027.54 1027.62 1027.66 1027.74 1027.78 1027.86 1027.94 1028.06 1028.10 1028.10 1028.14 1028.22 1028.22
1021.50 1022.10 1022.58 1023.06 1023.46 1023.82 1024.14 1024.42 1024.82 1025.06 1025.42 1025.78 1026.02 1026.22 1026.30 1026.30 1026.46 1026.50 1026.62 1026.78 1026.94 1026.94 1026.94 1027.10 1027.34 1027.42 1027.42 1027.38 1027.42 1027.58 1027.70 1027.74 1027.78 1027.78 1027.86 1027.90 1027.98 1028.10 1028.14 1028.22 1028.18 1028.06
1021.54 1022.10 1022.66 1023.10 1023.46 1023.78 1024.18 1024.54 1024.90 1025.30 1025.74 1025.82 1026.06 1026.30 1026.34 1026.38 1026.42 1026.46 1026.66 1026.78 1026.90 1026.90 1026.78 1027.06 1027.26 1027.42 1027.50 1027.42 1027.42 1027.58 1027.66 1027.78 1027.82 1027.86 1027.90 1027.90 1028.02 1028.18 1028.22 1028.18 1028.10 1028.02
1021.54 1021.94 1022.50 1022.98 1023.30 1023.62 1023.98 1024.42 1024.94 1025.42 1025.82 1025.90 1025.98 1026.18 1026.30 1026.46 1026.54 1026.70 1026.86 1026.74 1026.70 1026.74 1026.70 1026.86 1027.22 1027.42 1027.54 1027.54 1027.34 1027.50 1027.50 1027.62 1027.78 1027.82 1027.90 1027.90 1027.98 1028.18 1028.18 1028.06 1028.14 1028.10
1021.06 1021.46 1021.94 1022.58 1023.26 1023.78 1024.10 1024.42 1025.10 1025.58 1025.82 1026.02 1026.18 1026.30 1026.46 1026.66 1026.70 1026.74 1026.94 1026.98 1026.86 1026.82 1026.86 1026.78 1027.18 1027.38 1027.54 1027.70 1027.46 1027.50 1027.62 1027.70 1027.74 1027.78 1027.74 1027.86 1027.86 1027.74 1027.90 1027.90 1028.06 1028.22
1020.82 1021.34 1021.86 1022.30 1022.94 1023.66 1024.14 1024.58 1025.02 1025.50 1025.90 1026.14 1026.38 1026.46 1026.62 1026.78 1026.82 1026.78 1026.82 1027.02 1026.98 1026.86 1026.94 1026.90 1027.02 1027.38 1027.54 1027.70 1027.54 1027.50 1027.58 1027.62 1027.66 1027.54 1027.66 1027.78 1027.86 1027.66 1027.50 1027.70 1027.94 1028.06
Wind_Speed
8 8 8 8 8 7 7 8 6 7 6 6 7 6 7 5 6 7 7 7 7 8 7 7 8 8 7 8 8 8 7 8 6 6 7 7 7 8 8 8 7 6
9 9 7 8 8 7 6 7 7 8 7 7 7 7 6 7 6 7 8 8 8 8 8 8 8 8 8 7 8 8 7 7 8 5 7 9 7 8 8 7 7 6
9 9 10 10 9 9 9 7 8 7 7 7 7 7 6 6 7 7 7 8 8 8 8 8 8 8 8 8 8 7 7 8 8 7 8 8 6 7 6 6 6 7
9 9 9 9 9 10 9 9 8 8 7 8 7 6 7 6 7 8 8 8 8 8 7 8 8 7 8 8 8 8 8 8 6 7 8 7 7 6 6 6 6 6
10 9 8 9 9 9 9 9 8 8 8 8 7 7 7 8 8 8 8 8 8 8 7 8 7 7 7 7 8 8 8 7 6 7 7 7 5 6 5 5 6 7
8 9 9 10 9 10 9 9 8 8 8 9 8 7 7 8 8 8 8 8 7 8 8 7 8 7 8 8 8 8 7 7 6 7 8 7 6 5 4 5 6 7
11 10 10 10 10 10 10 9 9 7 7 6 7 7 7 8 8 8 8 8 8 7 8 8 8 8 7 8 8 8 6 7 6 6 8 6 6 7 6 6 6 6
11 10 10 10 11 10 10 9 8 8 8 7 9 6 7 8 8 7 7 8 8 8 8 8 8 8 7 7 8 8 7 5 7 7 7 7 6 7 6 5 5 6
11 10 11 11 11 10 10 7 7 7 6 8 8 8 6 7 8 8 8 8 9 8 8 8 8 8 6 7 7 8 7 7 6 7 7 8 8 7 6 5 6 6
10 10 12 11 11 10 11 8 7 6 6 8 8 8 8 6 7 8 8 8 9 8 8 8 8 7 7 7 7 7 7 7 7 7 7 7 7 6 5 5 6 6
11 10 11 11 11 9 10 8 7 7 6 8 9 9 8 8 6 7 8 8 8 9 9 8 8 7 8 7 6 6 7 7 7 7 6 6 5 5 4 5 5 5
10 10 11 11 10 10 10 8 7 8 9 7 9 10 8 7 8 6 7 9 8 8 8 8 7 7 7 7 7 6 6 6 6 6 5 5 5 5 5 5 5 5
10 10 10 11 10 9 9 8 8 9 9 9 7 10 9 8 7 8 6 9 8 8 8 7 7 7 6 6 6 6 7 7 6 6 5 5 5 5 5 5 5 5
9 10 10 10 9 9 9 8 8 8 8 8 8 9 9 9 9 9 7 7 8 8 7 6 7 7 6 6 6 6 6 6 6 6 6 6 6 6 6 6 5 5
9 9 9 9 9 9 9 8 8 8 8 8 8 8 7 8 8 9 9 9 7 7 7 6 6 6 5 6 6 6 5 6 6 6 6 6 6 6 6 7 6 6
10 9 9 9 9 9 9 8 8 8 8 8 8 8 8 7 8 8 9 9 9 7 6 6 5 5 6 8 6 6 6 5 5 5 6 6 7 7 7 7 6 6
10 10 10 10 9 9 8 9 8 7 8 8 8 8 8 7 8 9 8 8 8 8 7 5 5 5 9 8 9 8 5 5 5 5 6 6 7 7 7 7 7 6
10 10 10 9 9 9 9 8 8 8 8 8 8 8 7 7 8 8 8 7 7 7 7 6 5 6 9 9 8 8 6 5 5 5 5 6 6 6 5 6 6 6
11 11 10 9 9 9 8 8 8 8 8 8 8 6 7 8 8 8 8 7 7 8 7 5 5 7 9 9 8 7 7 6 5 5 6 5 5 5 5 5 5 6
11 11 11 10 9 9 9 9 8 8 6 5 6 6 7 7 7 8 7 7 7 7 7 6 6 7 9 9 8 7 7 5 5 5 5 5 5 4 4 5 4 4
11 11 11 10 10 10 9 9 9 8 7 5 5 7 8 8 8 8 6 7 6 6 6 6 5 8 9 10 8 8 7 5 5 4 4 4 4 4 4 4 3 2
12 11 10 9 9 8 8 9 8 8 8 5 5 5 4 5 5 6 7 7 6 7 7 6 4 8 10 10 9 8 7 4 4 5 4 4 4 4 4 3 3 4
12 12 11 10 10 10 9 9 9 8 6 5 6 5 6 6 6 5 6 7 6 6 7 5 4 7 10 10 10 10 6 4 4 4 4 4 4 4 3 3 4 5
12 13 13 11 11 11 10 8 7 6 5 4 7 7 6 5 5 5 4 6 7 7 7 7 4 6 10 10 12 10 7 6 4 5 4 4 3 3 3 4 5 8
14 14 14 13 11 9 9 10 10 9 5 4 4 4 5 5 4 6 4 3 5 6 7 8 6 5 7 8 10 10 7 5 5 5 5 4 3 4 3 4 4 4
13 13 13 14 13 11 9 9 8 8 6 5 4 4 5 5 4 6 6 4 3 5 5 7 7 5 5 7 8 9 8 6 5 5 4 3 3 3 4 4 4 4
Wind_Direction
129 128 131 128 120 122 128 124 117 111 106 105 105 101 92 83 74 75 75 78 81 84 84 84 85 84 80 79 81 82 79 81 78 72 71 71 65 64 61 57 53 54
132 128 127 116 108 110 109 112 114 112 109 104 101 97 85 83 69 81 84 86 83 85 86 85 84 86 86 84 83 85 83 82 80 70 75 69 65 64 64 62 63 58
134 134 129 125 126 122 116 108 105 106 107 103 96 90 91 86 86 83 87 90 90 86 83 86 86 84 86 86 85 85 86 83 80 75 74 69 65 71 70 68 65 58
132 126 118 117 120 120 116 112 108 106 107 100 95 97 95 92 91 90 88 91 91 89 88 87 90 88 89 91 92 84 81 78 75 78 79 74 71 75 70 70 66 57
126 117 115 116 115 115 117 115 114 114 107 107 103 99 99 101 98 96 95 91 95 94 92 91 89 92 92 89 88 89 82 80 74 79 84 82 74 75 67 66 62 59
109 114 117 118 119 120 117 115 116 115 113 107 108 101 102 102 101 103 103 102 99 100 97 95 94 90 91 90 87 85 88 86 83 89 88 86 82 66 69 60 61 58
119 118 117 115 113 113 113 114 116 107 104 105 102 99 106 102 102 106 107 107 106 102 103 104 101 95 91 94 91 92 85 89 93 92 92 87 83 72 60 58 58 59
117 117 116 114 113 115 113 117 120 112 112 102 100 96 107 108 109 110 108 108 106 104 103 102 100 97 97 97 100 100 96 95 99 96 92 86 79 74 61 57 60 58
119 118 116 114 113 115 113 100 109 96 103 106 107 107 97 110 114 113 112 109 105 105 105 101 99 97 96 101 103 106 106 104 98 96 92 88 79 75 73 67 58 51
113 116 115 117 117 123 123 115 106 99 107 105 111 109 108 100 110 115 114 111 108 107 105 105 101 101 99 101 108 112 112 107 102 93 87 86 91 89 73 61 56 45
118 119 119 120 122 125 121 111 108 110 104 114 114 110 114 116 106 113 113 112 114 116 111 107 110 111 109 108 108 112 111 107 100 94 88 89 87 80 72 63 49 46
120 121 122 124 123 123 121 110 112 114 117 115 120 119 117 117 120 118 117 114 113 112 109 110 112 114 117 121 120 116 106 99 95 96 96 92 84 70 63 54 52 34
128 128 128 126 124 124 123 121 118 123 122 123 122 123 126 123 118 116 113 115 113 110 112 116 118 119 124 124 121 115 110 105 101 97 90 83 71 66 58 56 47 39
127 127 125 124 122 122 121 120 121 121 120 120 121 124 126 128 129 122 118 110 112 109 112 117 120 122 125 128 123 120 114 109 110 102 92 78 69 60 55 51 45 36
123 119 120 120 120 119 120 120 120 120 119 119 118 117 118 121 125 124 120 110 104 113 118 120 128 135 141 138 130 123 117 116 108 100 93 84 69 60 47 42 35 24
124 123 122 121 121 121 121 121 120 120 118 116 117 120 122 123 125 124 123 126 124 118 120 125 133 147 152 149 144 136 127 115 104 94 88 77 66 54 40 37 29 26
124 125 126 124 125 121 122 122 120 119 117 116 120 126 129 132 130 128 129 131 132 132 130 132 139 144 146 146 142 135 128 124 111 100 82 73 64 56 43 21 19 19
129 128 125 125 125 126 124 122 119 118 120 125 127 130 130 128 132 133 132 133 129 132 135 144 149 148 145 144 144 141 135 125 117 99 83 70 63 55 41 32 17 14
131 129 128 127 124 122 121 121 121 119 124 132 137 137 131 134 136 133 134 136 136 139 147 155 154 167 154 149 145 138 128 116 103 93 82 66 53 50 41 34 23 15
132 132 130 128 128 128 129 126 125 129 128 128 130 134 135 132 134 134 135 141 145 144 150 160 162 178 163 152 146 135 122 106 96 86 80 67 58 47 50 45 36 24
135 135 133 134 135 135 133 132 133 131 132 140 145 150 147 147 145 140 144 142 141 139 140 154 175 175 173 158 150 134 114 103 93 83 68 59 51 49 54 50 32 36
139 135 134 133 130 127 127 129 135 138 141 143 132 123 116 119 121 128 138 141 143 140 133 145 163 178 180 165 149 137 121 97 97 78 64 53 38 37 35 21 14 39
141 138 137 134 134 135 138 143 142 136 141 144 135 143 142 142 148 146 145 141 143 142 134 133 138 172 181 169 151 137 115 108 96 81 59 52 36 21 15 23 19 48
147 145 143 145 145 147 147 139 120 113 148 161 151 151 149 150 142 130 144 150 144 149 147 137 134 157 177 180 155 151 141 133 120 102 70 46 18 16 29 45 33 41
152 152 149 147 145 145 145 139 142 154 157 139 138 133 136 138 136 130 124 124 142 143 141 129 132 138 162 186 160 145 138 131 126 110 86 34 23 24 16 54 29 23
154 151 147 145 146 146 142 136 135 132 142 142 140 141 140 142 139 135 131 134 136 128 127 132 130 134 152 172 164 150 148 143 140 118 111 86 41 59 39 7 16 8